Terminal Aerodrome Forecast
Issued by NWS

Home | Current Version | Previous Version | Text Only | Print | Product List | Glossary On
Versions: 1 2 3 4 5 6 7 8 9 10 11 12 13 14 15 16 17 18 19 20 21 22 23 24 25 26 27 28 29 30 31 32 33 34 35 36
000
FTAK31 PANC 031742
TAFAVD
TAF
PAVD 031742Z 0318/0418 VRB03KT P6SM SCT060 BKN120 OVC200
     FM032200 VRB03KT 6SM -RA BKN060 OVC120
     FM040200 VRB03KT 4SM -RA BR OVC035
     FM041200 VRB02KT P6SM -RA BKN045 OVC060
      AMD LTD TO CLD VIS AND WIND=

USA.gov is the U.S. government's official web portal to all federal, state and local government web resources and services.